sat.trackr.live / text

‹ back to catalog

STARLINK-5311

NORAD 55288 · 2023-010V

PAYLOAD ACTIVE UNKNOWN

§ Identity

Operator
Country
US
Launch date
2023-01-19
Launch site
AFWTR
Launch vehicle
Mass (kg)
RCS (m²)

Purposes: comms

External: N2YO · Heavens-Above · Gunter

§ Orbital elements

Epoch: 2026-09-20T09:20:39.547968Z

Period
96.11 min
Inclination
69.9980°
Eccentricity
0.0003727
Mean motion
14.98328613 rev/d
Perigee alt
569.5 km
Apogee alt
574.7 km
Semi-major
6,950.2 km
B*
6.7859e-5
RAAN
253.5318°
Arg perigee
268.2106°
Mean anomaly
91.8626°
Rev number
20,243

§ Raw data

STARLINK-53111 55288U 23010V   26263.38934662  .00000717  00000+0  67859-4 0  99972 55288  69.9980 253.5318 0003727 268.2106  91.8626 14.98328613202430

JSON: /api/v1/satellites/55288 · /tle

For live sub-satellite position, see the globe view (requires WebGL).

§ Visibility from observer

Set your observer location to see the next 7 days of passes ≥ 10°. The values pass through the URL so the page stays shareable.

No JS? Fill the form by hand. The geolocation button needs JavaScript.